Weather History for Spirit of St Louis, MO

Change the Weather History Date:

Wednesday, June 19, 2013

  Actual Average Record
Temperature  
Mean Temperature 75 °F -  
Max Temperature 87 °F 82 °F 91 °F (2006)
Min Temperature 63 °F 61 °F 54 °F (2005)
Cooling Degree Days 10    
Growing Degree Days 25 (Base 50)    
Moisture  
Dew Point 63 °F    
Average Humidity 71    
Maximum Humidity 93    
Minimum Humidity 40    
Precipitation  
Precipitation 0.00 in - - ()
Sea Level Pressure  
Sea Level Pressure 30.01 in    
Wind  
Wind Speed 1 mph (NE)    
Max Wind Speed 7 mph    
Max Gust Speed -    
Visibility 10 miles    
Events      
Averages and records for this station are not official NWS values.
T = Trace of Precipitation, MM = Missing Value Source: NWS Daily Summary

Daily Weather History Graph

Daily Weather History Graph

Search for Another Location

Airport:

Trip Planner

Search our weather history database for the weather conditions in past years. The results will help you decide how hot, cold, wet, or windy it might be!

Date:

Astronomy

Jun. 19, 2013 Rise Set
Actual Time 5:37 AM CDT 8:30 PM CDT
Civil Twilight 5:05 AM CDT 9:02 PM CDT
Nautical Twilight 4:25 AM CDT 9:42 PM CDT
Astronomical Twilight 3:39 AM CDT 10:28 PM CDT
Moon 4:25 PM CDT (6/19) 2:20 AM CDT (6/19)
Length of Visible Light 15h 56m
Length of Day
14h 52m
Waxing Gibbous, 80% of the Moon is Illuminated
Jun 19
Waxing Gibbous
Jun 23
Full
Jun 29
Last Quarter
Jul 8
New
Jul 15
First Quarter

Hourly Weather History & Observations

Time (CDT) Temp. Heat Index Dew Point Humidity Pressure Visibility Wind Dir Wind Speed Gust Speed Precip Events Conditions
12:54 AM 66.0 °F - 63.0 °F 90% 29.96 in 10.0 mi Calm Calm - N/A   Clear
1:54 AM 64.9 °F - 62.1 °F 90% 29.96 in 10.0 mi Calm Calm - N/A   Clear
2:54 AM 64.0 °F - 62.1 °F 93% 29.98 in 10.0 mi Calm Calm - N/A   Clear
3:54 AM 64.0 °F - 62.1 °F 93% 29.98 in 10.0 mi Calm Calm - N/A   Clear
4:54 AM 63.0 °F - 61.0 °F 93% 29.99 in 9.0 mi Calm Calm - N/A   Clear
5:54 AM 64.0 °F - 61.0 °F 90% 30.01 in 8.0 mi Calm Calm - N/A   Clear
6:54 AM 68.0 °F - 62.1 °F 81% 30.03 in 10.0 mi NNE 3.5 mph - N/A   Clear
7:54 AM 70.0 °F - 63.0 °F 78% 30.04 in 10.0 mi Calm Calm - N/A   Mostly Cloudy
8:54 AM 71.1 °F - 64.0 °F 78% 30.05 in 10.0 mi East 4.6 mph - N/A   Mostly Cloudy
9:54 AM 73.9 °F - 64.9 °F 73% 30.05 in 10.0 mi ESE 4.6 mph - N/A   Clear
10:54 AM 78.1 °F - 64.9 °F 64% 30.05 in 10.0 mi Calm Calm - N/A   Clear
11:54 AM 80.1 °F 82.1 °F 66.0 °F 62% 30.05 in 10.0 mi ENE 4.6 mph - N/A   Scattered Clouds
12:54 PM 81.0 °F 83.0 °F 66.0 °F 60% 30.04 in 10.0 mi Variable 5.8 mph - N/A   Scattered Clouds
1:54 PM 82.9 °F 84.0 °F 63.0 °F 51% 30.02 in 10.0 mi Calm Calm - N/A   Scattered Clouds
2:54 PM 84.0 °F 84.4 °F 61.0 °F 46% 30.01 in 10.0 mi East 6.9 mph - N/A   Mostly Cloudy
3:54 PM 87.1 °F 86.7 °F 60.1 °F 40% 30.00 in 10.0 mi North 3.5 mph - N/A   Clear
4:54 PM 84.9 °F 84.8 °F 60.1 °F 43% 30.01 in 10.0 mi Variable 5.8 mph - N/A   Clear
5:54 PM 84.9 °F 84.4 °F 59.0 °F 41% 29.99 in 10.0 mi WNW 3.5 mph - N/A   Mostly Cloudy
6:54 PM 84.0 °F 84.4 °F 61.0 °F 46% 29.99 in 10.0 mi NW 4.6 mph - N/A   Clear
7:54 PM 78.1 °F - 64.9 °F 64% 29.99 in 10.0 mi Calm Calm - N/A   Clear
8:54 PM 73.0 °F - 64.9 °F 76% 30.00 in 10.0 mi Calm Calm - N/A   Scattered Clouds
9:54 PM 72.0 °F - 66.9 °F 84% 30.02 in 10.0 mi Calm Calm - N/A   Clear
10:54 PM 70.0 °F - 66.0 °F 87% 30.03 in 10.0 mi Calm Calm - N/A   Clear
11:54 PM 68.0 °F - 64.0 °F 87% 30.04 in 10.0 mi Calm Calm - N/A   Clear